Volver al catálogo

FENGYUN 1C DEB

ActivoLEO
NORAD 30178·DEBRIS·🇨🇳 China

Lanzado May 10, 1999 desde Taiyuan Satellite Launch Center

Loading…

Próximos Pases (próximas 24 horas)

TLE

ActualizadoSource: Space-Track

Época: Sep 14, 2026, 19:33 UTC

1 30178U 99025UK  26257.81461398  .00000765  00000-0  86974-3 0  9991
2 30178 102.2547 204.7768 0278131 217.9979 169.4839 13.59506305969227

Sigue FENGYUN 1C DEB en tiempo real con AllMySat

Download on the App Store